RH
55 57 58 61 65 66 66 65 63 71 85 91 91 94 97 97 96 97 98 99 99 98 94 88 88 94 98 99 96 93 91 89 88 91 94 91 88 90 88 88 90 83 80 83 81 78 75 65 59 59 49 38 34 34 35 35 33 32 33 33 33 30 25 23 22 20 21 22 23 24 24 24 25 27 27 26 25 23 21 21 20 18 15 12 11
54 55 56 58 61 65 67 67 65 68 80 92 96 97 99 99 99 99 98 99 99 98 96 90 88 89 88 86 86 86 88 89 86 86 91 92 91 91 87 88 94 87 79 83 82 79 79 72 68 69 59 46 38 33 34 36 34 33 33 33 33 32 28 25 21 20 22 22 23 25 26 26 26 28 29 28 26 23 22 21 20 19 16 13 11
54 55 57 57 58 62 65 67 69 70 74 85 95 98 99 100 100 100 99 99 99 99 98 91 89 91 84 79 83 87 89 91 90 88 89 91 91 93 90 86 91 89 80 81 83 80 81 79 77 76 70 60 50 40 34 34 34 33 34 32 32 33 32 30 23 19 21 23 27 30 29 29 30 30 30 29 27 24 23 22 21 21 18 15 11
57 57 58 58 57 58 61 65 68 71 71 75 84 90 94 98 99 100 100 100 99 98 99 95 93 96 94 91 93 95 94 94 95 94 92 92 89 89 91 88 88 90 83 79 81 81 82 82 80 79 77 71 65 53 41 35 32 30 32 32 31 32 35 33 25 20 22 27 32 34 31 32 34 31 28 28 28 26 24 22 22 22 18 14 11
59 60 61 62 59 57 58 59 61 67 71 72 76 80 84 90 96 99 100 100 100 98 97 97 98 100 99 99 99 98 99 98 98 98 95 93 90 87 90 90 89 92 89 81 79 81 84 84 82 81 80 77 75 66 54 44 34 29 29 30 31 30 32 31 24 19 23 30 32 32 32 33 33 31 30 31 30 27 26 24 23 22 18 13 10
61 61 64 66 64 61 57 52 51 54 61 68 71 75 78 81 86 92 96 98 100 100 98 95 97 99 100 100 99 98 99 99 96 93 90 87 87 87 89 90 90 91 94 90 84 82 83 85 84 83 81 79 78 75 68 57 45 35 29 29 30 29 30 32 29 21 21 28 31 32 34 33 31 31 32 34 33 30 27 25 24 21 17 13 11
65 64 65 67 65 64 61 54 47 42 44 51 57 64 70 73 77 82 88 92 96 99 100 98 97 97 99 99 99 99 98 98 95 89 86 86 86 88 90 91 91 91 94 96 92 85 83 85 85 84 83 80 79 80 76 69 60 49 38 31 30 29 31 36 36 25 20 25 27 29 34 34 31 30 29 31 33 31 28 25 24 22 18 14 12
69 69 68 69 67 64 59 52 45 40 37 37 39 45 52 59 66 71 77 82 86 92 95 97 99 98 98 98 98 99 99 99 99 96 95 94 90 89 90 91 90 90 90 94 94 87 83 85 84 83 83 81 80 81 81 77 71 62 51 39 32 31 30 34 39 30 20 22 23 26 31 33 31 30 28 27 29 29 28 27 25 23 20 16 14
69 70 70 73 74 72 65 53 42 36 35 35 33 32 35 41 48 55 63 69 73 79 84 89 93 97 99 99 98 99 99 98 98 99 99 99 96 93 91 88 88 89 88 90 92 90 88 87 86 82 77 79 83 83 83 81 77 72 64 53 42 36 31 32 38 34 24 21 21 23 29 31 31 31 30 28 27 28 29 28 26 24 22 19 17
67 70 72 72 74 77 76 67 55 42 33 32 32 31 29 30 32 37 44 52 60 65 71 76 81 87 91 95 98 98 99 99 99 100 99 99 99 98 95 90 88 89 88 88 90 92 91 90 92 89 80 79 80 79 79 80 81 78 72 67 59 47 37 32 35 36 31 26 21 22 26 28 30 32 31 29 28 29 29 29 27 25 23 22 20
65 70 73 72 71 73 73 71 66 56 41 31 28 27 27 26 26 27 28 34 43 50 57 63 67 73 79 84 90 93 96 97 98 100 100 100 100 99 99 97 95 93 91 91 92 92 93 91 94 95 90 85 77 72 72 74 79 82 77 73 71 63 51 39 35 36 37 35 30 27 25 24 26 27 27 28 29 30 30 29 28 28 26 25 24
64 69 73 72 68 67 67 65 63 59 54 48 41 34 28 25 23 22 22 23 28 34 41 49 54 60 66 71 77 82 87 92 95 97 98 99 100 100 100 99 99 99 97 98 97 95 96 94 91 92 92 89 81 73 73 72 74 80 81 77 74 73 68 55 42 38 38 39 36 33 29 24 23 24 25 26 28 30 31 30 29 29 29 29 29
66 69 73 73 69 66 65 64 61 55 55 54 52 47 41 38 32 25 23 21 21 24 26 33 41 47 54 60 65 70 76 82 88 93 96 97 98 99 100 100 100 100 99 100 100 99 99 97 91 89 92 92 85 80 79 77 73 74 80 82 79 75 74 69 58 48 41 35 31 31 30 27 24 25 26 26 28 31 33 33 30 29 30 32 33
68 71 74 74 73 70 68 68 66 59 54 50 45 41 39 42 44 40 37 29 21 21 22 24 27 32 40 47 54 60 66 71 78 85 91 95 96 96 97 98 100 100 100 99 99 99 99 100 97 93 94 90 84 83 83 79 72 69 71 76 81 80 77 75 72 64 54 42 33 30 31 30 26 25 26 27 31 32 34 34 32 30 30 33 34
64 69 72 72 71 69 66 66 68 65 62 59 56 49 38 33 35 38 47 46 32 23 22 22 24 24 28 33 40 48 56 62 68 73 80 86 91 95 95 96 97 98 100 100 100 99 98 100 100 98 98 92 86 87 90 87 79 72 68 67 72 78 79 80 78 74 68 58 46 36 32 29 27 27 27 29 34 33 33 34 33 32 31 31 32
55 60 65 69 68 66 62 60 60 62 62 61 65 67 58 46 36 31 40 50 46 36 28 23 24 24 24 26 28 34 41 50 57 63 69 74 79 85 88 92 95 95 97 98 99 99 98 98 99 99 100 98 94 92 94 96 94 87 80 74 69 68 71 76 79 80 77 71 62 50 39 31 27 28 28 31 36 36 36 37 35 35 33 30 30
51 50 55 62 64 61 60 57 56 59 61 59 62 68 67 61 52 43 40 42 43 44 40 31 27 25 25 25 24 26 29 35 43 51 58 65 70 75 78 81 85 90 93 96 97 97 96 95 95 96 96 97 96 96 96 96 96 93 87 84 82 76 70 70 74 78 80 80 75 66 54 41 32 30 29 32 38 38 39 39 37 36 34 32 32
49 46 47 54 58 57 57 55 53 56 59 59 61 63 63 58 55 54 54 51 46 41 40 38 36 31 27 26 26 26 26 27 32 38 46 54 60 67 73 76 78 80 82 87 91 95 96 95 94 92 91 92 91 91 94 96 96 92 85 84 88 88 81 75 71 72 74 77 79 77 69 57 44 36 31 32 36 37 39 40 39 37 35 34 35
46 45 44 48 54 55 55 53 49 51 55 58 60 60 57 53 50 52 55 60 60 52 43 39 39 38 33 30 28 27 28 27 28 31 36 44 51 56 63 70 76 79 80 82 83 85 90 94 95 93 91 90 88 86 87 91 96 96 91 87 88 90 87 80 74 71 68 68 72 76 77 70 58 45 38 35 34 34 37 39 40 39 36 34 36
43 44 43 46 52 53 53 52 48 48 54 56 56 56 53 50 50 52 54 57 61 62 56 46 40 38 36 33 32 30 29 29 29 30 32 36 43 50 55 60 68 76 82 86 86 83 83 84 89 93 94 93 90 87 83 84 89 93 96 96 93 93 91 87 84 81 76 72 71 71 74 76 69 56 46 41 34 32 35 37 39 41 39 36 37
40 43 44 45 52 53 51 52 49 47 51 54 55 54 52 51 50 53 57 59 59 61 61 55 47 42 38 36 35 33 32 32 31 32 34 36 39 45 50 54 58 64 72 79 85 87 86 84 82 84 88 93 94 92 88 85 85 84 87 94 98 99 97 95 93 92 90 87 83 78 75 76 75 66 56 48 39 35 36 37 39 43 42 39 38
34 40 43 44 50 52 47 49 51 48 49 53 54 54 53 53 53 54 57 60 62 63 63 61 56 49 43 40 39 38 36 35 33 33 35 38 40 42 45 48 51 55 61 67 74 80 84 86 86 83 82 85 89 92 93 93 91 87 83 86 92 97 100 100 98 98 97 94 90 87 83 79 76 70 65 58 48 41 37 36 40 43 43 42 40
30 34 40 42 45 47 44 46 49 48 49 51 51 52 52 51 52 54 57 60 63 65 67 68 66 60 52 46 44 42 39 37 39 40 38 39 42 43 42 43 46 49 54 59 64 70 76 80 84 86 85 83 83 85 90 94 94 93 90 86 86 90 95 98 100 100 99 97 94 91 87 84 79 72 68 65 58 49 41 37 40 44 44 44 43
28 29 35 39 42 43 42 43 46 47 47 46 48 50 49 48 46 47 52 57 60 65 68 70 74 75 69 58 48 42 41 41 44 45 41 40 43 46 46 44 43 45 48 53 58 62 69 75 78 81 83 84 84 83 84 87 88 89 92 91 89 88 89 91 95 99 100 100 98 94 89 86 83 78 73 70 65 58 48 41 42 46 47 46 45
29 28 33 38 39 38 37 39 44 45 43 41 45 49 50 50 47 45 47 51 57 63 64 68 75 80 81 78 70 61 52 44 44 44 41 40 42 46 50 50 47 46 46 49 55 59 64 71 76 79 80 81 86 88 86 84 82 82 86 89 92 93 92 90 90 93 97 100 100 98 94 90 88 84 79 76 73 67 57 47 44 48 49 49 48
30 32 35 38 39 37 36 39 42 43 41 41 43 46 49 51 50 49 48 50 56 62 64 69 75 78 83 89 91 88 73 52 45 45 41 43 47 48 52 54 54 56 54 52 53 56 60 66 72 79 82 81 84 90 91 89 86 84 83 84 87 93 95 95 94 93 94 97 100 99 98 96 93 89 84 80 78 73 65 54 48 48 50 52 51
31 33 36 41 44 42 41 43 44 43 43 44 46 47 49 52 51 52 51 50 54 61 68 75 79 82 86 87 89 94 85 62 49 47 42 44 53 59 61 60 59 62 63 61 59 57 58 62 66 74 83 86 86 86 88 92 94 93 91 86 85 89 91 91 94 96 96 97 99 100 100 99 97 94 90 87 82 76 70 62 53 49 51 54 53
31 34 39 45 50 49 47 47 47 46 45 46 48 49 52 54 54 55 55 53 55 63 72 80 84 85 87 89 90 92 86 68 53 47 43 45 57 70 74 69 64 64 65 65 65 62 60 61 63 69 76 84 89 86 84 87 91 95 98 95 88 86 89 90 92 95 97 97 98 99 100 100 99 98 95 93 88 81 74 67 60 53 52 55 55
35 38 41 46 51 52 51 50 48 48 48 49 50 50 52 54 55 57 59 59 61 66 72 80 85 86 89 94 92 88 81 69 56 49 46 51 61 71 73 70 68 67 65 66 66 65 63 61 62 67 71 77 85 88 88 87 87 91 97 100 95 89 88 91 92 93 97 99 98 98 99 99 98 98 97 96 93 86 79 73 67 59 54 54 56
41 42 45 51 55 54 53 53 51 51 51 53 54 54 54 55 55 57 60 63 66 69 71 78 85 91 96 92 80 77 79 76 70 62 55 56 64 69 70 69 69 68 67 68 68 67 66 64 62 66 71 75 78 83 89 92 90 91 94 98 99 95 91 91 92 93 95 97 98 98 97 98 98 98 98 97 95 90 84 80 75 68 61 55 55
42 43 47 52 53 54 55 55 57 60 60 60 60 60 60 60 61 62 65 68 71 73 77 85 92 97 96 79 66 74 88 92 89 77 60 57 64 69 71 69 68 68 67 68 70 70 70 69 66 67 72 79 80 79 85 93 95 95 94 95 97 96 94 92 92 93 93 93 94 94 94 96 98 97 97 97 96 92 87 83 79 75 69 61 55
44 45 48 50 49 51 55 61 67 69 67 67 66 67 68 68 68 69 69 71 75 78 84 92 98 97 85 69 70 87 98 98 93 79 63 61 65 69 72 70 68 68 67 68 71 72 72 73 72 72 74 81 84 84 86 91 95 97 98 98 97 95 94 93 93 93 93 93 93 91 90 91 93 94 95 96 96 94 90 87 82 78 74 67 59
47 47 46 47 46 46 52 65 74 72 70 74 75 76 77 75 71 71 73 77 81 86 93 95 93 88 79 74 84 98 101 96 87 75 67 67 69 71 73 71 70 70 69 69 70 71 72 74 75 77 79 82 86 89 90 89 91 95 99 100 100 98 97 95 93 93 94 95 95 93 91 89 89 92 94 95 97 95 93 90 86 82 78 72 67
47 44 43 44 46 51 59 70 76 74 76 82 84 84 81 75 73 78 83 82 75 78 92 97 90 84 86 91 97 100 101 94 82 72 69 71 75 78 75 71 70 72 74 74 73 72 74 76 78 81 84 86 87 90 92 90 89 91 95 99 100 100 100 97 94 94 95 95 95 96 95 92 91 92 93 95 98 97 95 92 89 86 82 78 74
47 44 47 52 58 68 76 80 81 82 85 88 88 88 83 79 84 92 96 91 78 78 92 100 96 92 95 100 100 100 101 92 78 72 73 76 81 82 77 73 73 75 79 79 78 80 80 80 82 85 87 88 88 90 92 91 89 88 91 98 100 100 101 98 94 94 95 96 96 97 98 98 96 94 93 95 97 98 97 95 91 88 85 81 78
56 60 65 71 79 87 92 93 91 89 90 90 90 90 88 92 96 95 92 91 89 91 97 101 99 99 100 100 99 101 100 87 77 78 81 82 86 84 78 75 76 80 84 83 82 85 87 87 87 88 88 88 89 91 92 90 88 87 89 96 100 100 100 99 95 93 93 96 99 99 100 101 99 98 97 97 98 98 98 97 93 89 86 84 82
72 74 64 59 63 67 73 80 84 84 85 88 93 96 97 100 100 93 89 90 90 90 96 100 100 100 100 99 100 102 98 85 81 87 89 89 89 84 78 78 82 86 88 87 87 89 92 94 94 92 92 90 90 92 93 91 89 86 89 96 100 100 100 99 99 95 92 93 96 97 99 100 100 100 99 100 100 100 100 98 95 91 89 87 85
80 76 60 48 46 49 59 72 81 88 92 94 97 100 99 98 98 97 97 97 94 94 97 101 100 99 100 100 100 101 96 87 87 93 94 93 90 84 79 81 88 92 91 91 93 95 97 99 100 98 96 93 92 92 92 91 88 86 90 98 101 100 100 100 100 99 95 93 94 95 99 100 99 99 100 100 100 100 100 100 97 95 93 90 88
78 74 68 65 65 70 79 88 93 96 96 95 95 98 98 97 97 100 99 97 97 99 100 101 100 100 100 99 100 101 96 92 94 98 97 94 89 84 80 83 91 97 97 96 98 100 101 100 100 100 97 94 93 93 92 91 88 86 92 99 100 100 100 100 100 100 98 97 96 97 99 100 99 99 100 100 100 100 100 100 99 97 96 93 91
76 72 71 76 83 86 85 88 94 96 96 96 95 97 100 100 100 102 101 99 100 101 100 101 100 100 100 100 101 102 99 98 100 100 97 93 88 83 82 88 95 99 101 102 101 100 100 99 98 99 96 93 93 93 92 91 89 88 95 100 100 99 100 100 99 100 100 98 98 99 99 99 100 100 99 99 100 100 100 100 100 99 97 95 93
79 78 74 77 86 89 89 92 95 96 97 99 100 100 101 101 101 101 99 97 96 96 97 99 100 100 100 98 97 98 100 101 100 97 94 90 85 83 86 92 99 101 102 103 102 100 100 98 97 97 94 93 93 92 91 92 91 91 97 100 100 99 100 100 99 100 100 97 96 98 99 98 99 100 100 100 100 100 100 100 101 100 99 97 97
82 85 80 78 82 90 97 100 99 98 98 99 100 101 100 100 100 100 99 97 95 95 97 99 100 99 95 93 95 98 100 99 95 92 91 87 83 85 90 96 101 102 102 102 101 99 98 96 96 96 94 92 91 91 91 91 93 95 98 100 100 99 100 100 100 100 101 98 95 95 97 99 101 101 100 100 100 99 99 100 100 100 100 100 100
83 90 87 84 88 95 100 100 99 100 101 100 100 100 100 100 100 99 100 101 100 100 100 99 98 96 94 96 98 98 95 91 88 88 89 88 86 89 94 99 101 101 101 102 101 100 99 96 94 94 94 93 92 92 92 92 94 97 99 100 100 99 99 100 100 100 100 99 95 93 93 97 101 101 100 100 100 100 98 98 100 101 100 100 100
88 94 91 91 96 100 100 101 100 100 100 100 100 100 99 100 100 100 101 101 100 100 99 97 97 98 99 98 95 89 84 80 82 87 90 89 89 94 97 99 101 102 101 102 102 101 101 99 96 94 96 95 94 93 94 93 94 97 99 101 100 98 99 100 100 100 100 100 98 95 93 94 98 101 101 100 100 100 98 97 99 100 100 100 100
94 95 94 97 101 100 100 101 101 100 100 101 101 100 100 100 100 100 100 100 100 100 99 99 100 100 97 92 84 78 75 74 78 86 90 90 92 98 100 100 101 102 101 100 102 102 101 99 96 93 93 93 93 94 94 94 94 95 97 100 100 100 100 100 99 99 99 99 100 99 97 96 97 99 101 101 101 101 100 98 99 100 100 100 99
96 97 99 100 99 99 100 101 100 100 101 101 100 100 100 100 100 100 100 100 101 101 100 100 99 95 90 83 75 72 72 73 78 86 91 94 97 100 101 99 100 102 101 100 102 103 101 98 95 93 91 89 89 91 92 92 93 94 94 96 99 100 100 100 100 99 96 97 99 99 100 100 98 99 101 101 99 99 100 100 100 99 97 95 94
99 100 95 94 97 100 100 100 100 100 100 100 100 100 99 100 100 100 100 101 102 102 99 97 94 89 83 76 71 70 71 72 77 86 91 95 99 101 101 100 100 100 100 100 101 102 102 101 99 97 94 91 90 90 90 90 91 92 93 94 96 99 100 100 100 99 97 97 99 98 97 98 99 100 100 100 98 98 100 101 100 98 95 92 91
97 89 82 89 99 101 100 100 100 100 100 100 100 100 100 100 100 100 101 102 102 102 99 96 91 85 81 76 71 69 70 71 74 80 85 90 96 99 101 101 102 101 101 100 100 100 101 101 102 102 99 95 93 91 90 89 90 91 93 93 94 97 100 100 100 100 98 97 98 98 98 99 100 100 100 100 100 100 100 101 101 100 98 97 96
89 85 87 97 101 100 99 100 100 99 100 100 100 100 100 99 98 98 100 101 102 101 98 95 92 87 83 80 76 72 70 71 73 75 78 83 88 92 95 98 99 101 102 102 101 101 101 100 101 103 102 99 98 97 91 87 87 89 92 93 93 94 97 99 101 100 98 97 98 99 100 100 100 100 100 100 100 100 100 100 100 100 100 99 100
92 96 99 100 100 99 100 100 99 100 100 100 100 101 101 100 99 99 99 100 101 100 96 94 95 94 89 86 81 75 71 70 71 72 74 76 78 82 89 96 98 98 99 101 102 102 102 101 101 101 101 99 99 98 93 87 85 86 88 91 95 97 96 98 101 101 99 98 99 100 99 97 97 99 100 100 100 100 100 100 100 101 101 100 100
101 101 99 99 100 100 100 100 100 100 100 100 100 100 101 101 101 101 102 101 100 100 98 96 97 98 94 89 85 80 75 71 69 68 70 72 73 75 81 92 100 99 97 98 101 102 101 100 100 100 101 99 97 95 92 88 87 87 85 85 90 97 100 100 101 101 100 99 99 101 100 96 92 92 94 97 99 99 99 99 99 99 99 99 99
Wind_Speed
21 23 25 27 28 26 22 20 13 4 2 1 2 4 8 11 13 14 20 28 30 29 30 34 41 44 46 49 50 49 48 46 46 45 43 42 40 38 36 36 36 34 33 32 31 31 31 31 31 28 26 26 28 28 29 30 30 29 28 28 28 28 28 29 31 31 28 26 25 24 23 22 21 20 20 20 21 21 21 20 19 20 20 20 20
22 24 26 28 30 29 27 25 20 12 7 4 2 3 7 11 12 10 10 17 26 30 29 31 38 41 40 43 47 48 47 46 47 48 46 45 45 43 40 42 41 36 34 35 34 33 33 34 33 28 27 27 26 27 29 31 31 30 31 31 29 29 30 31 33 32 29 28 26 24 23 23 22 21 21 21 22 22 21 21 21 20 20 21 21
23 25 27 28 30 31 31 29 26 21 15 8 3 4 7 9 11 12 10 9 15 25 29 30 36 41 39 38 42 46 48 47 47 49 50 49 49 48 47 46 43 39 36 36 37 37 35 35 33 28 28 28 26 27 29 32 33 32 33 32 31 30 30 32 33 32 30 27 24 21 20 21 20 22 23 22 23 24 23 22 22 21 22 21 22
22 24 26 27 29 31 32 31 29 26 22 16 10 5 6 9 11 13 12 9 7 15 25 29 34 40 41 41 42 45 47 47 46 48 50 51 50 50 48 45 43 42 40 37 39 41 38 37 35 31 29 28 28 29 30 32 33 34 34 33 33 33 32 33 34 33 31 27 23 18 16 16 15 19 24 25 25 25 24 24 23 22 23 22 22
21 23 24 26 28 30 31 31 31 30 28 25 20 15 11 10 11 13 13 11 8 8 15 23 29 35 39 42 44 44 45 45 46 48 49 49 49 50 48 46 45 45 43 41 41 42 41 40 37 34 31 30 30 30 31 32 32 33 35 35 35 35 35 35 36 36 33 29 24 16 13 14 13 15 19 21 24 25 25 25 24 23 23 23 23
21 22 23 25 26 27 30 32 33 33 30 28 25 21 17 13 10 12 14 13 12 10 10 14 19 25 33 40 44 45 45 45 45 45 47 48 48 49 49 49 48 47 46 45 45 44 44 42 40 37 34 32 32 32 33 33 32 33 34 35 37 37 36 36 37 37 35 32 29 21 16 15 14 15 15 14 17 22 25 26 24 24 24 23 24
18 21 22 23 25 27 28 30 32 33 32 30 28 26 22 18 14 11 12 14 14 12 11 11 11 14 20 29 37 41 44 46 45 43 46 48 49 49 49 51 51 51 50 49 49 49 46 45 44 42 38 35 33 34 35 35 34 33 33 35 36 37 37 37 37 38 36 36 35 29 24 20 16 17 16 13 14 18 23 25 24 25 24 24 25
15 18 20 21 23 26 27 29 30 30 30 30 30 29 27 24 21 17 13 12 13 13 13 12 11 11 13 17 22 28 33 38 41 42 45 47 46 46 47 49 50 52 53 51 51 51 47 47 48 46 43 40 38 37 37 36 36 34 33 34 35 37 39 38 37 39 39 38 38 35 32 28 22 19 16 14 12 14 18 22 23 24 24 25 26
14 15 17 18 19 21 24 27 29 29 28 29 29 29 28 27 25 23 20 16 14 13 13 13 13 13 14 15 16 18 21 24 28 32 36 40 43 44 45 46 46 48 50 50 51 51 50 51 51 49 48 46 43 42 40 38 37 36 35 34 35 36 39 39 39 40 41 40 38 38 37 35 30 25 21 18 13 11 14 20 23 25 26 26 26
15 15 16 17 17 18 21 24 27 30 30 28 28 28 27 27 26 26 25 22 19 16 15 14 15 15 15 16 17 17 18 20 21 22 23 27 34 39 42 45 45 43 43 45 49 51 53 54 54 52 52 50 47 46 44 43 40 38 36 35 34 36 38 39 41 41 42 41 40 39 39 39 37 34 31 28 22 16 12 16 21 24 25 26 26
15 14 14 16 18 18 19 21 24 29 33 32 31 30 28 27 26 26 25 24 22 21 19 17 16 16 16 17 18 18 19 20 21 22 21 20 24 28 33 38 41 41 40 40 43 47 51 55 56 54 54 53 51 49 47 47 45 41 38 36 35 36 37 39 41 41 41 41 40 40 40 39 38 38 37 35 33 27 18 14 19 22 22 23 26
15 14 13 14 17 19 19 20 22 25 29 31 33 33 32 31 29 27 25 24 23 22 21 20 19 18 16 16 16 17 18 19 20 22 22 23 22 22 24 28 33 36 39 39 40 43 48 52 55 56 56 56 55 52 50 49 48 45 43 40 39 38 38 39 41 42 41 41 40 41 41 40 39 38 37 35 34 33 26 19 18 23 21 21 25
14 14 13 14 17 19 19 20 22 25 26 27 30 32 33 33 32 31 29 26 25 23 21 21 21 21 20 18 17 16 16 17 18 20 22 24 25 25 24 24 26 30 34 37 39 41 45 49 54 57 59 59 58 56 53 51 50 50 49 46 43 42 40 40 42 42 42 43 43 43 43 42 42 40 37 36 34 32 30 22 17 22 23 20 23
13 13 12 13 14 15 16 17 19 23 26 28 30 32 33 32 32 33 32 30 29 25 22 21 21 21 21 20 20 19 17 16 16 18 20 23 26 28 28 28 27 28 30 33 35 37 40 43 49 54 58 59 58 56 53 50 48 48 51 51 49 46 43 42 42 42 43 43 43 44 44 44 44 41 39 38 35 33 32 26 19 19 20 19 22
13 12 12 13 13 13 14 15 16 18 21 23 26 29 32 32 32 33 32 31 31 29 26 24 22 22 21 20 20 20 20 19 17 17 18 20 23 26 29 30 31 31 31 31 32 34 36 37 40 45 51 56 58 58 56 55 51 46 46 48 49 49 47 46 44 44 44 43 44 44 44 45 45 43 41 39 36 34 33 30 26 23 21 18 21
14 14 13 13 14 14 14 15 16 17 18 18 19 21 25 28 29 30 29 29 31 31 30 28 25 22 21 20 20 20 20 20 20 19 18 18 20 23 26 28 30 32 34 34 34 34 35 35 35 37 41 46 52 56 58 58 55 50 48 46 45 47 48 49 49 47 46 44 44 44 45 46 45 44 44 39 36 34 33 32 31 31 28 23 21
14 14 14 13 14 15 14 14 16 16 17 18 18 17 19 21 23 25 25 25 28 30 30 30 28 25 23 21 20 20 20 21 21 21 21 20 19 19 22 24 26 29 32 34 35 36 37 37 38 37 37 37 41 47 53 56 54 51 52 51 49 46 45 47 50 50 50 48 46 44 45 46 46 45 45 41 37 35 34 34 34 35 35 30 25
13 14 15 14 15 15 13 13 15 16 16 17 18 19 19 19 20 21 20 20 23 27 29 30 30 29 27 24 22 21 20 21 21 21 22 22 21 20 19 21 22 25 28 31 33 34 35 36 38 39 39 37 36 39 44 50 53 54 55 55 53 48 45 45 47 49 50 50 49 48 47 46 46 46 46 44 41 39 37 37 36 36 38 35 31
13 14 15 15 15 15 12 11 14 15 15 17 18 18 20 21 21 21 19 17 18 21 25 28 29 31 31 28 26 24 22 21 20 21 21 22 22 21 21 21 20 20 22 25 28 31 33 34 36 37 38 38 38 38 39 41 46 53 57 58 57 53 49 47 47 46 46 47 49 50 50 48 47 46 46 45 45 44 41 40 39 38 39 39 34
15 15 15 15 15 15 13 12 14 16 16 17 18 19 19 19 20 20 19 19 18 19 23 27 29 30 32 32 30 28 25 23 21 21 21 22 22 22 22 22 22 20 20 21 23 26 30 32 35 36 37 37 38 39 41 40 39 43 50 56 59 58 56 55 53 50 47 46 47 49 50 50 49 48 48 47 48 47 45 44 43 41 41 41 37
17 16 16 16 15 15 14 13 14 16 17 18 20 20 19 19 20 20 19 19 20 21 24 28 30 31 32 32 32 31 29 27 25 22 21 21 22 22 23 23 23 23 22 23 23 24 26 28 31 35 37 37 37 37 39 41 41 41 43 47 52 56 58 59 58 56 52 49 48 48 50 51 51 50 50 50 49 49 47 46 45 44 44 43 39
20 19 18 17 15 15 17 16 15 17 18 20 21 20 20 21 21 21 20 20 21 21 22 25 29 32 33 32 32 33 32 30 28 26 23 22 22 23 24 25 25 25 24 24 25 26 26 27 29 32 34 36 37 37 37 38 40 42 43 44 45 49 54 57 57 57 55 53 51 49 49 51 51 52 51 51 50 50 50 49 47 46 46 45 42
22 21 19 18 17 17 18 17 16 18 19 20 20 20 20 21 22 23 23 23 22 22 21 22 25 29 32 33 34 34 33 32 30 29 28 26 24 24 24 25 26 26 25 25 25 26 27 28 29 30 32 34 36 37 38 38 39 41 43 45 44 44 47 51 53 55 56 54 52 51 51 51 51 52 53 52 51 51 51 51 49 48 48 46 44
23 23 22 19 18 19 19 18 17 18 20 22 22 20 20 21 22 23 24 25 24 24 23 23 24 25 28 32 36 36 34 34 33 33 32 30 27 26 25 25 25 26 26 26 26 26 26 28 29 30 31 33 34 36 37 39 40 41 42 43 44 43 44 46 48 52 54 54 53 53 53 52 51 52 54 54 53 52 52 52 50 48 48 47 45
26 26 23 21 20 21 22 21 19 20 24 26 25 23 22 21 21 22 23 25 25 24 24 24 24 25 25 28 31 33 34 36 36 35 36 33 30 27 26 25 25 25 25 25 26 26 27 28 29 29 31 32 33 34 35 38 41 42 43 43 42 42 43 44 45 47 50 52 54 54 54 53 53 53 54 55 56 55 53 53 52 50 50 48 46
30 29 26 24 23 24 24 23 23 24 27 27 26 26 24 23 22 23 23 24 25 25 24 23 23 24 23 23 23 25 31 37 37 37 38 36 32 28 26 25 24 24 25 25 25 26 27 28 29 29 30 31 31 31 33 35 38 39 42 44 43 42 42 43 45 45 47 49 52 54 54 53 53 54 55 56 57 56 55 54 54 53 52 50 47
32 30 29 27 26 24 24 23 24 26 27 26 26 26 26 25 24 24 23 25 26 25 24 23 21 20 20 21 20 21 30 38 38 36 36 35 32 29 26 25 24 24 26 26 26 26 26 28 30 31 31 32 32 32 32 33 34 35 37 40 43 43 42 43 45 46 47 48 50 53 54 53 53 55 56 57 57 57 56 55 55 54 53 51 49
34 31 29 27 25 24 25 25 26 26 26 25 25 25 25 25 25 25 25 26 27 26 25 23 20 20 20 19 19 22 32 40 38 35 34 32 30 29 28 27 26 25 25 26 27 27 27 27 29 30 32 33 34 35 35 34 34 33 33 36 40 43 43 43 44 46 47 48 49 51 53 53 54 55 55 55 56 57 57 56 56 55 54 53 51
33 30 28 27 26 26 27 27 28 27 26 25 25 25 25 25 25 26 26 27 27 27 26 24 22 21 19 18 22 31 39 41 38 35 33 32 30 29 30 30 29 26 25 26 27 28 29 29 29 29 31 33 35 36 37 36 36 35 34 34 37 41 44 44 45 45 46 47 48 50 51 52 52 53 53 53 54 56 57 57 57 56 56 55 53
30 28 28 27 26 28 29 30 30 28 27 26 25 26 26 26 26 27 28 28 27 27 27 26 24 20 19 25 35 40 39 36 34 35 35 33 31 30 30 30 30 29 27 26 26 27 28 30 30 30 30 32 34 37 38 37 37 36 36 36 37 39 42 44 45 45 47 48 49 50 50 50 51 51 51 52 53 55 57 58 58 57 57 57 55
29 29 29 29 29 30 31 31 31 30 28 26 26 26 26 26 27 28 28 28 27 27 26 24 21 22 27 38 43 40 32 25 26 33 37 36 33 31 31 30 29 29 28 26 26 26 27 28 29 30 30 31 33 35 37 38 38 38 39 39 40 40 41 43 44 45 47 48 49 49 49 49 49 49 50 51 52 54 56 57 57 58 57 58 57
31 31 31 32 32 33 33 33 33 33 30 28 27 27 26 26 27 28 28 28 27 28 26 23 24 30 37 42 39 32 25 21 25 34 39 38 34 32 30 30 29 28 28 27 27 26 26 27 28 29 29 30 31 33 34 36 37 38 39 39 41 42 41 42 44 45 46 46 47 47 46 47 48 48 49 50 51 53 55 56 56 57 57 56 56
32 32 33 34 34 35 35 33 32 30 27 27 28 27 25 26 28 28 27 27 28 29 28 29 32 38 40 38 32 26 23 25 32 37 39 38 35 32 30 29 29 28 28 28 27 26 26 26 26 27 28 29 30 31 32 34 35 37 37 37 38 40 41 41 43 43 44 44 44 44 44 44 45 46 47 48 50 52 53 54 55 55 55 54 53
33 33 34 35 35 36 36 33 28 25 25 27 27 25 25 27 28 25 24 28 34 34 34 37 41 41 36 30 26 23 25 31 37 38 39 38 35 32 30 29 27 27 27 27 27 25 25 25 25 25 26 28 29 29 30 32 33 34 35 34 35 37 39 40 41 41 41 42 41 41 41 42 43 43 44 46 48 50 51 53 54 54 54 53 50
34 35 36 36 36 36 35 31 28 26 28 28 26 25 27 27 25 23 26 34 38 37 35 37 37 34 28 24 21 21 26 34 38 38 38 37 34 32 30 28 26 26 26 26 26 25 24 24 24 24 25 27 28 28 28 30 30 31 31 31 32 34 35 38 39 38 38 38 38 38 39 39 40 41 41 42 45 48 50 51 53 54 54 52 49
33 33 33 34 33 32 31 28 27 28 29 28 27 26 26 24 23 28 34 37 37 35 33 31 28 25 24 23 21 23 30 36 38 37 37 35 33 31 29 27 26 25 24 25 24 24 25 25 24 25 25 26 27 27 27 27 28 28 27 28 29 30 31 33 34 34 33 33 34 35 37 37 38 38 38 39 41 45 48 50 51 52 53 51 48
29 30 34 39 39 38 37 35 33 32 31 30 28 25 24 24 27 32 34 33 33 34 32 29 28 27 25 22 21 26 34 37 36 35 35 33 31 30 28 27 26 25 24 23 23 23 24 25 25 25 25 26 26 25 25 25 25 25 24 24 25 26 28 30 30 29 29 29 30 32 33 35 36 36 36 37 39 42 46 48 49 50 51 51 48
27 31 39 45 46 45 41 36 32 31 29 27 26 26 29 30 30 31 31 31 33 33 31 29 28 26 24 23 25 30 36 36 35 34 33 31 30 29 28 26 25 25 24 23 23 23 23 24 25 25 25 26 25 25 23 23 23 23 21 20 21 23 26 27 28 28 27 26 26 27 29 32 34 34 35 36 39 41 44 46 47 49 50 50 49
30 32 37 40 40 36 31 29 29 30 30 31 32 32 33 32 31 31 32 33 33 30 26 25 24 24 24 24 26 31 35 35 34 33 31 30 29 28 27 25 24 24 24 23 22 22 22 23 24 25 26 25 25 24 22 21 21 21 19 17 18 22 24 26 27 28 27 24 23 24 26 28 31 32 33 35 37 39 41 44 46 47 48 48 47
33 33 34 34 33 33 32 32 32 32 32 34 34 32 30 31 32 32 30 29 26 23 22 25 27 27 25 23 24 30 34 34 33 32 30 29 28 27 25 24 23 22 22 22 22 22 23 24 25 25 25 24 24 23 20 19 20 19 16 14 17 21 22 24 26 27 25 23 22 22 23 24 26 27 28 30 34 35 37 39 42 44 44 45 45
32 29 29 32 33 35 34 30 27 29 31 32 30 29 31 32 31 29 28 28 28 27 28 30 29 25 24 25 28 31 32 32 31 30 29 27 26 25 23 22 22 21 21 22 22 22 23 23 23 23 22 21 21 21 18 17 17 17 16 12 14 19 20 21 23 24 24 22 21 21 22 22 22 23 23 25 28 30 31 33 35 38 39 40 42
33 27 28 32 35 34 31 26 26 28 30 29 29 30 32 31 28 27 28 29 29 29 27 25 23 24 27 30 31 31 31 31 29 28 27 26 24 22 21 20 20 20 20 21 21 21 21 21 20 20 19 18 17 17 17 16 15 16 17 10 9 14 16 17 20 22 22 22 20 19 20 21 22 23 23 23 24 25 28 29 29 32 34 36 37
33 28 30 36 37 32 28 29 30 29 28 29 30 31 31 28 27 27 28 28 26 23 22 23 26 29 31 31 31 30 29 28 26 25 24 23 22 20 19 19 18 18 19 20 19 18 18 18 17 16 16 15 14 14 15 14 14 17 18 11 5 8 11 13 15 18 19 19 18 18 17 18 20 22 23 24 22 22 25 26 25 27 30 32 32
30 29 34 37 33 29 29 32 32 30 29 30 29 29 28 26 27 27 26 24 23 22 25 29 32 31 31 30 29 27 26 25 23 22 21 21 20 19 18 17 16 17 17 17 16 15 15 15 15 14 14 14 13 12 12 13 13 16 19 17 10 7 8 9 11 14 16 17 17 17 16 15 16 19 21 22 22 22 23 23 22 24 26 28 29
29 32 33 30 27 30 34 35 32 30 29 28 27 26 26 26 27 26 24 23 25 28 31 32 31 30 29 27 26 24 23 23 21 20 19 19 18 17 17 16 16 16 16 16 15 14 14 14 14 13 13 13 13 11 11 11 12 14 18 20 16 10 8 8 8 10 13 14 14 14 13 12 13 15 18 19 21 22 23 22 22 23 25 27 28
32 31 29 29 33 36 35 32 30 30 29 27 25 24 25 26 25 24 25 27 29 30 30 29 28 27 26 24 23 23 21 21 20 18 18 17 16 16 16 16 16 15 15 15 15 15 15 15 14 14 14 13 12 11 10 10 10 12 15 18 18 14 10 9 9 9 10 10 10 11 11 12 13 14 16 18 19 21 22 22 21 21 23 25 26
31 30 35 40 39 35 30 29 30 30 28 26 25 23 24 24 23 24 27 29 29 28 27 27 26 25 24 22 22 21 21 20 19 17 17 16 14 14 15 16 15 13 13 14 15 15 15 14 14 14 14 14 13 12 11 9 9 11 13 16 18 16 13 11 12 12 10 9 10 11 12 14 15 16 18 19 18 20 23 22 20 19 21 23 23
33 40 46 42 33 28 28 29 29 28 26 25 24 23 22 22 23 25 27 28 28 27 27 27 25 23 23 23 22 22 22 21 19 18 17 16 14 14 14 15 14 14 15 15 15 14 14 14 14 14 14 14 14 12 11 10 9 10 12 14 17 17 15 14 14 15 14 12 12 12 13 15 17 19 21 23 22 23 25 26 23 22 23 24 23
43 46 41 32 26 27 29 29 27 26 25 24 22 22 22 23 25 27 28 28 29 28 28 27 25 24 24 23 23 22 21 20 20 19 17 16 15 14 14 14 13 13 14 15 15 14 14 13 13 13 13 13 13 11 11 11 11 11 13 14 16 18 18 17 16 16 15 14 13 13 14 17 19 21 25 26 26 26 27 27 27 25 26 26 25
43 37 30 26 27 28 28 27 26 25 24 22 21 21 23 25 27 29 29 29 30 29 28 27 26 25 24 23 22 21 20 20 19 18 18 18 16 15 14 14 13 13 12 12 13 13 12 12 13 14 14 14 13 12 12 12 12 12 13 14 16 18 19 20 19 18 16 15 16 17 18 19 21 23 27 28 27 27 27 28 29 29 28 27 25
33 29 27 28 28 28 27 26 26 25 23 21 22 24 25 25 27 29 30 30 29 29 28 27 26 25 24 23 22 21 20 20 19 19 19 19 18 16 14 12 12 13 13 12 11 11 10 11 13 14 13 14 15 14 13 12 11 10 12 13 15 16 18 19 20 19 17 17 18 20 21 22 23 24 26 29 29 29 29 29 30 31 32 31 30
Wind_Direction
20 19 19 19 22 27 29 26 20 3 332 317 205 226 239 246 261 267 259 255 254 254 252 247 243 238 235 234 235 236 237 235 232 232 233 233 232 231 233 235 231 226 225 226 226 226 226 224 227 228 227 225 226 226 223 223 224 221 221 220 219 217 214 213 214 215 214 213 215 218 221 224 225 226 227 226 223 222 223 223 225 227 227 228 228
23 22 21 22 24 28 31 31 31 29 16 347 277 230 238 239 245 260 266 256 253 255 254 252 251 245 242 244 242 240 242 242 239 237 235 232 232 231 232 232 228 224 224 226 225 226 227 225 227 229 226 225 227 227 225 225 225 222 222 221 220 219 218 218 218 216 214 215 217 220 223 226 228 229 229 228 225 224 225 227 229 230 231 231 230
24 23 22 22 23 27 30 31 32 34 32 21 339 272 258 262 267 267 270 275 262 254 256 260 256 247 246 250 248 244 243 243 242 241 238 233 231 231 230 231 229 225 223 226 225 227 229 228 229 229 227 226 227 227 225 225 225 223 223 222 221 220 220 223 223 220 216 216 217 219 225 229 231 233 232 230 229 227 228 230 232 234 235 234 233
23 22 21 21 22 25 28 28 31 35 36 32 21 346 295 288 287 277 273 286 282 250 248 255 255 248 243 241 242 243 243 242 241 240 239 237 235 235 234 236 236 231 226 225 226 227 229 230 230 229 227 228 230 229 227 226 226 225 223 223 222 220 220 224 225 221 218 214 211 212 221 222 226 235 234 230 230 229 230 233 234 236 236 235 233
25 22 20 21 22 23 26 29 32 36 36 33 29 21 360 326 299 289 286 287 295 272 248 248 250 250 246 241 239 241 241 242 241 241 241 241 240 239 240 241 241 238 232 230 229 228 229 231 231 228 226 227 230 231 231 230 230 228 225 223 223 222 222 225 227 223 218 215 210 204 209 211 217 230 229 229 232 230 231 234 236 235 234 233 231
29 26 22 21 21 22 26 30 34 35 35 35 33 30 22 3 330 299 290 288 292 291 271 254 249 247 246 245 244 244 243 244 246 249 249 250 247 243 242 242 241 241 238 235 233 230 230 232 231 228 225 226 230 232 233 234 232 230 227 225 225 225 224 225 229 226 220 217 212 204 204 205 206 215 213 217 227 228 231 233 234 234 232 231 230
28 27 24 24 24 24 24 26 31 34 35 36 36 35 32 23 9 339 307 297 297 296 288 272 257 246 243 245 248 249 249 249 253 257 256 255 253 247 243 241 240 240 238 236 236 233 230 231 231 229 228 228 230 232 233 234 234 232 230 229 227 226 225 224 228 230 225 221 218 212 211 206 199 207 208 206 216 222 229 232 232 232 231 230 228
25 22 22 23 24 25 24 25 27 30 33 34 35 34 33 31 26 15 356 328 314 307 301 292 280 266 255 250 248 250 250 250 252 255 253 252 253 253 250 247 245 244 241 238 239 237 234 233 232 231 229 229 229 230 232 234 235 234 231 230 229 229 228 225 226 231 230 225 222 219 217 214 210 210 207 204 214 225 229 229 231 232 231 231 231
23 19 18 19 19 21 21 21 22 25 28 29 29 30 29 29 28 24 18 5 347 327 312 306 300 291 280 268 259 254 252 251 253 254 253 251 252 253 253 252 252 250 247 243 243 241 239 236 234 232 230 230 229 229 231 233 234 235 233 231 229 229 231 228 225 231 234 231 227 223 221 221 221 220 215 208 208 215 225 229 230 231 231 233 234
21 17 15 15 13 13 14 14 15 16 19 20 21 23 23 24 24 22 19 15 7 354 335 318 307 300 294 286 279 272 263 258 254 253 256 257 256 256 255 255 256 255 253 250 247 244 242 239 236 234 233 232 232 231 230 231 232 234 234 234 232 230 232 231 227 229 234 235 234 230 226 224 224 225 225 222 216 210 221 237 237 235 235 235 237
20 16 14 14 12 11 12 11 10 11 12 12 12 12 13 15 16 16 15 12 9 5 357 344 328 313 303 297 292 287 280 273 265 257 255 256 257 257 258 259 259 258 258 257 253 248 246 243 238 236 236 235 234 232 231 232 233 234 234 234 234 233 232 233 231 229 230 233 235 235 233 230 229 230 231 231 227 221 218 231 241 243 240 239 240
19 16 13 11 10 11 11 9 10 11 10 8 7 6 6 6 5 6 7 6 4 1 359 355 349 339 326 313 302 295 289 282 276 270 263 258 256 255 256 257 257 257 258 258 255 251 248 245 239 237 237 236 235 234 233 233 234 235 235 234 232 232 232 232 233 231 229 230 233 236 237 237 235 236 236 236 236 232 224 221 234 243 239 235 239
14 12 9 4 5 7 7 6 7 9 8 7 5 4 4 3 1 359 358 358 358 356 353 351 350 347 342 334 324 312 300 288 279 275 270 265 262 259 257 254 251 254 257 259 258 253 250 247 242 239 239 238 237 236 235 234 234 235 236 236 234 233 232 231 233 235 234 234 235 237 238 239 239 238 238 239 240 237 230 219 223 239 238 229 234
7 5 2 0 1 2 2 2 3 3 3 4 3 2 1 0 359 358 355 352 353 353 349 345 343 342 341 339 336 329 319 308 292 280 272 266 263 261 260 258 254 253 256 259 260 258 254 251 247 245 242 239 236 235 234 233 232 234 236 237 237 237 235 234 234 236 237 237 237 237 236 238 240 239 238 238 237 235 230 219 209 223 228 220 226
357 355 355 358 359 358 360 0 0 1 -0 0 359 357 357 358 356 355 353 349 349 350 350 346 341 338 337 334 333 331 327 323 313 300 285 273 266 261 259 258 257 257 258 260 261 261 260 257 253 250 247 243 239 236 236 235 232 232 234 235 237 238 238 237 237 236 237 238 238 237 236 237 239 239 239 237 234 234 232 222 211 209 208 204 220
352 350 348 350 354 355 358 0 359 358 358 358 356 352 353 355 354 354 353 349 347 347 348 347 343 338 336 332 329 326 323 321 317 313 305 292 280 271 265 260 257 257 257 258 259 260 262 262 258 255 251 248 245 242 240 239 236 233 232 233 234 236 237 238 239 238 238 239 238 238 237 238 238 238 239 236 232 233 231 224 218 217 214 207 213
347 348 345 343 347 348 351 356 356 356 355 355 355 351 349 349 350 352 352 349 347 346 346 346 344 340 337 334 331 325 319 316 313 311 309 306 298 287 278 270 263 259 256 255 255 255 257 260 260 259 256 252 250 247 243 241 238 235 234 234 233 234 235 237 239 240 240 240 240 238 237 239 239 237 238 235 230 229 228 226 223 226 227 220 214
340 344 343 338 340 342 343 348 351 351 349 350 350 348 347 346 345 347 347 344 344 344 344 345 344 342 340 337 334 329 322 316 311 308 306 305 304 301 293 283 273 266 262 258 256 254 253 255 256 258 258 255 252 250 247 244 240 236 235 236 236 236 236 237 237 238 239 239 240 240 238 239 238 237 237 235 232 230 228 228 227 228 233 230 222
338 341 341 337 335 334 334 338 344 346 344 344 345 343 342 342 341 342 341 337 336 338 341 343 343 343 342 340 337 333 326 319 312 307 304 301 300 300 297 294 286 276 268 264 262 258 255 254 254 255 256 256 253 251 250 248 245 241 239 238 237 236 235 235 235 235 236 237 237 239 239 239 238 237 236 234 234 234 232 232 231 229 234 235 229
336 336 337 336 333 330 329 330 337 341 339 340 339 337 337 336 336 337 336 334 332 332 336 340 342 342 342 341 339 335 331 326 318 310 304 300 297 295 293 292 288 282 273 266 263 262 260 257 255 254 254 254 254 252 250 249 247 246 245 243 242 238 235 236 236 235 234 234 235 237 239 240 239 237 236 234 236 236 235 236 235 232 234 236 232
335 332 332 332 330 328 326 323 328 334 335 337 337 334 334 334 333 332 332 332 331 330 331 335 338 340 341 341 338 336 334 330 324 316 308 301 295 292 288 285 283 282 278 273 267 262 260 259 257 256 254 253 252 251 251 250 248 247 246 247 246 243 239 239 239 238 237 236 236 236 237 239 239 238 238 237 238 237 234 235 236 233 234 235 232
336 330 327 328 327 327 325 320 323 329 331 333 335 333 331 331 331 330 329 328 327 326 327 328 331 335 338 338 337 336 334 332 328 323 315 305 296 290 286 283 280 279 278 276 273 269 265 261 259 258 257 255 253 251 249 249 248 248 247 247 248 246 244 242 240 240 239 237 236 236 237 238 238 237 238 239 239 238 235 235 234 233 233 234 233
338 332 326 324 323 323 322 319 318 322 326 328 329 327 325 324 325 325 325 324 323 322 322 322 323 328 332 334 335 334 332 332 331 327 321 312 301 292 287 284 281 278 275 274 274 273 271 266 263 261 259 258 257 254 251 248 246 246 246 245 246 246 247 246 243 241 240 237 236 236 236 237 236 235 236 238 239 239 238 236 234 233 233 232 233
337 332 325 319 319 320 320 318 315 317 321 323 323 321 319 318 319 319 319 319 318 318 319 319 317 320 325 328 330 331 331 332 331 327 322 316 307 298 291 286 283 280 277 274 271 271 270 269 267 264 262 260 259 257 255 252 249 247 246 246 245 244 244 245 246 245 243 239 236 235 235 236 235 234 235 237 239 239 239 238 235 232 232 232 232
333 330 324 317 317 318 318 316 314 315 318 319 318 317 316 315 314 315 315 313 312 311 312 313 312 314 317 321 326 328 329 329 328 325 322 317 310 302 295 291 286 283 280 276 273 270 268 268 267 265 264 262 260 258 256 255 253 251 249 248 247 245 243 244 245 246 246 243 239 236 236 235 235 234 234 236 239 240 240 239 236 232 232 232 231
331 329 324 318 315 315 315 313 312 314 316 316 316 315 315 314 313 314 314 312 308 305 305 305 306 309 309 313 319 321 323 325 324 322 320 316 311 304 297 293 291 289 285 280 276 272 268 266 265 264 263 262 260 258 256 255 255 254 251 249 248 247 246 245 245 245 245 244 241 239 238 236 235 235 235 236 238 239 239 237 236 233 233 231 229
328 325 321 316 312 311 312 309 309 311 312 314 315 314 313 313 314 314 314 313 309 303 300 298 300 301 303 309 312 311 317 320 320 319 317 313 310 307 302 296 293 291 289 286 281 277 272 267 264 262 261 260 259 257 255 253 252 253 253 251 249 247 246 246 246 245 245 244 242 241 240 238 236 236 238 238 237 238 238 237 236 234 232 230 229
323 320 317 314 309 307 309 308 307 309 309 311 313 313 313 313 313 313 312 312 309 302 297 294 294 297 299 303 307 309 314 316 316 316 315 313 310 308 305 300 295 291 289 288 285 281 277 272 267 264 261 259 259 257 256 254 252 251 252 253 251 249 246 245 245 245 245 244 243 243 241 240 240 240 241 240 239 238 238 236 236 234 231 229 228
319 317 316 314 309 307 309 309 308 307 307 310 312 314 314 313 313 314 311 308 306 302 297 291 291 296 297 301 307 310 312 313 315 319 321 318 311 305 303 301 297 294 290 287 285 283 280 276 271 267 264 260 259 258 257 256 254 251 249 252 252 250 247 246 245 245 245 244 244 243 243 242 243 244 244 243 241 240 239 238 236 233 230 228 228
316 316 316 315 312 311 310 309 307 306 306 308 310 312 313 314 314 314 312 308 303 300 296 291 291 293 297 306 311 311 311 312 314 320 324 320 311 304 301 300 297 295 293 289 286 283 280 278 274 271 267 264 260 259 258 257 255 251 248 249 250 250 247 246 245 245 245 244 243 243 244 244 244 245 245 244 242 241 240 240 240 236 233 231 229
315 316 316 314 312 310 309 308 307 305 304 304 307 309 310 312 313 313 312 309 302 297 293 289 288 292 300 308 312 312 310 308 309 316 322 320 312 305 302 299 296 294 294 293 290 286 282 280 277 274 270 267 263 261 260 259 257 253 250 249 249 249 249 247 245 245 245 245 245 245 245 245 245 245 245 244 242 240 239 240 240 240 240 239 235
315 316 314 312 310 309 308 307 305 302 299 300 304 307 309 312 313 313 312 309 303 297 292 285 284 292 301 308 311 309 304 301 305 313 319 318 312 306 303 301 297 295 294 293 291 289 285 281 279 276 273 270 267 264 261 261 259 256 253 251 250 251 250 249 247 246 246 247 247 247 247 246 246 245 244 243 241 240 240 239 239 240 241 241 240
315 315 314 312 312 311 309 307 304 301 299 302 306 307 308 311 312 311 311 310 305 298 289 284 288 295 302 305 305 301 298 299 306 313 316 315 310 306 303 302 300 297 295 292 290 289 286 283 281 279 276 273 271 268 264 262 260 259 256 253 251 250 250 250 248 247 248 248 249 249 249 248 247 246 246 244 242 240 239 238 238 238 238 237 237
315 315 315 314 313 313 311 308 306 306 305 307 307 306 307 310 308 307 307 308 308 301 289 286 292 296 298 296 295 293 294 299 307 313 313 311 308 305 304 303 301 299 296 295 293 291 288 285 283 281 279 276 273 271 268 264 261 260 257 254 251 249 248 249 248 248 248 249 250 250 250 250 248 247 246 244 242 241 238 236 234 233 233 232 232
316 317 319 319 319 318 317 314 312 313 312 310 307 304 307 307 304 303 307 310 312 306 293 288 292 293 290 288 289 289 293 301 309 312 310 308 306 306 306 305 303 300 298 297 297 295 292 289 286 284 281 278 276 273 270 266 263 261 258 254 251 249 248 248 248 247 249 250 251 251 252 252 251 250 249 246 243 240 238 235 232 230 229 228 228
322 324 327 329 329 327 325 321 318 316 314 310 307 305 305 302 298 302 307 309 310 304 294 289 289 288 287 288 288 290 297 305 310 310 307 306 306 306 307 306 304 302 299 298 297 297 296 294 290 287 283 280 278 275 272 268 264 260 257 253 250 249 248 249 248 247 248 250 251 251 251 252 252 252 251 249 245 241 238 235 232 230 228 226 225
325 325 325 327 328 324 320 316 313 311 309 308 306 304 302 300 301 305 307 306 304 300 293 288 286 287 289 290 287 292 300 307 310 308 306 305 306 306 307 307 306 304 302 301 299 298 297 297 294 292 288 283 279 275 272 269 264 258 253 250 248 247 248 251 252 251 250 251 251 251 251 251 252 252 251 249 245 241 237 234 231 228 226 224 223
327 325 324 325 324 321 317 313 311 310 309 309 306 305 305 304 305 307 307 304 302 298 291 285 286 289 291 290 290 295 302 307 308 307 305 306 306 306 307 307 306 304 304 303 302 300 298 296 294 292 290 286 280 275 271 267 262 255 248 244 244 246 249 253 255 255 256 256 255 253 252 251 251 251 250 247 243 239 235 232 229 226 224 223 221
325 325 326 326 325 322 318 315 313 313 313 310 307 308 308 306 304 306 306 304 300 294 288 286 291 296 296 291 291 297 304 307 307 305 305 305 306 306 306 306 305 304 306 305 302 298 293 290 289 289 289 287 282 277 271 264 259 251 240 238 246 253 256 257 255 255 259 261 258 253 250 249 248 248 246 243 241 239 235 231 228 225 224 223 222
318 318 322 324 324 320 316 313 312 312 313 312 309 308 306 305 305 306 305 304 299 291 289 293 298 300 295 289 292 299 304 306 304 303 304 304 305 305 305 305 304 305 305 303 298 293 289 288 288 287 288 286 282 279 271 260 255 244 229 235 257 263 263 260 255 252 256 261 259 251 245 243 242 242 241 239 238 238 234 231 229 226 225 224 222
314 313 318 321 319 315 312 311 312 313 313 312 309 307 306 306 306 304 302 302 300 297 299 302 302 298 293 293 298 302 303 303 302 302 303 303 304 305 304 303 303 305 305 300 295 292 290 290 290 288 287 284 281 279 270 257 248 233 216 230 265 269 266 263 255 251 254 259 259 252 243 238 236 233 231 230 233 235 234 230 229 229 227 226 224
311 310 316 319 316 311 309 310 313 314 314 311 308 308 308 307 305 303 303 304 304 304 305 305 302 299 299 302 305 305 304 303 303 303 303 302 304 305 303 302 303 305 305 300 297 294 291 290 290 289 289 285 279 276 267 253 241 224 211 219 267 270 265 262 253 249 251 254 255 253 247 241 236 230 226 223 223 228 231 229 227 228 228 226 224
310 308 314 317 313 308 308 312 315 315 315 313 310 309 309 307 305 306 308 309 309 308 304 304 306 306 306 307 307 307 306 306 306 306 305 304 305 306 303 303 304 306 305 302 299 297 293 293 293 292 293 291 282 274 263 250 235 220 212 210 237 255 258 260 253 248 250 251 252 255 254 247 239 231 225 220 212 216 227 228 222 222 224 222 221
310 310 315 316 312 310 312 314 314 314 314 314 312 310 310 308 307 311 316 315 310 305 304 307 310 310 310 310 310 309 309 308 309 309 307 306 308 307 305 305 306 305 304 302 301 298 294 295 295 294 296 295 288 278 264 248 232 220 217 220 225 224 236 253 253 248 249 252 254 257 258 254 244 233 227 220 207 205 219 226 220 217 219 220 220
313 314 316 317 316 316 315 313 314 315 315 315 314 313 311 309 311 316 319 314 307 305 307 310 312 313 313 313 313 313 313 312 313 313 311 310 311 311 310 308 306 304 301 300 299 296 294 296 298 297 296 296 293 286 272 253 235 222 221 227 230 226 223 238 249 245 243 246 250 252 251 248 241 231 225 220 211 206 214 223 222 220 223 225 224
319 318 319 320 319 317 313 312 315 317 317 318 317 314 313 314 316 318 314 310 310 312 313 315 316 317 318 318 319 320 320 318 317 316 314 313 314 313 310 307 306 303 299 297 297 297 298 300 302 302 300 299 299 294 284 266 244 229 226 229 234 235 229 229 237 238 235 235 235 234 230 226 225 223 216 214 213 210 212 219 223 221 225 228 227
319 318 320 320 318 315 313 314 316 318 319 320 319 317 317 318 318 316 313 314 318 320 320 321 323 324 325 327 328 328 326 323 320 318 315 313 312 309 305 303 303 299 294 293 295 297 300 302 303 304 303 302 302 298 291 280 258 240 235 234 236 237 232 227 229 232 230 224 220 219 216 210 211 214 209 205 207 207 205 209 214 215 218 223 226
317 317 319 319 317 315 316 316 316 317 319 320 320 321 321 320 319 318 319 322 325 325 325 326 329 331 333 334 334 331 328 326 324 320 317 315 313 308 302 299 295 290 288 289 290 291 294 297 297 299 299 299 301 300 294 285 271 256 247 242 240 239 236 230 228 228 227 222 216 213 209 203 205 208 203 197 200 205 204 205 206 206 208 212 217
319 318 319 318 317 317 317 316 316 317 319 320 321 322 323 324 324 325 327 328 327 327 328 330 332 335 336 335 333 331 329 328 326 323 320 317 314 311 307 302 295 290 289 289 288 287 288 290 292 294 298 299 298 295 288 279 270 262 257 252 248 245 241 235 231 230 228 222 213 205 201 198 200 202 199 198 201 205 206 206 207 207 206 205 205
318 318 318 318 317 318 318 317 317 317 318 319 321 323 326 330 332 332 330 328 327 328 328 330 332 333 332 331 331 331 331 330 329 327 324 320 317 316 314 309 304 298 291 287 287 286 287 294 299 301 302 300 292 283 278 277 271 262 256 253 252 251 247 241 234 229 224 217 211 205 202 202 203 201 200 202 205 208 208 209 211 213 214 212 207
318 318 317 317 318 319 319 318 318 318 318 317 319 322 325 329 332 334 331 328 327 326 327 328 330 329 328 329 330 332 332 333 332 332 330 326 323 321 318 312 304 300 297 290 283 279 281 288 292 293 293 293 290 286 283 282 277 266 257 253 249 247 249 247 240 232 223 215 210 208 207 208 209 209 209 210 213 215 217 218 218 219 222 223 223